339  
ASUS41 KAKQ 230214  
RWRAKQ  
 
REGIONAL WEATHER ROUNDUP  
NATIONAL WEATHER SERVICE WAKEFIELD VA  
900 PM EST FRI FEB 22 2019  
 
NOTE: "FAIR" INDICATES FEW OR NO CLOUDS BELOW 12,000 FEET WITH NO  
SIGNIFICANT WEATHER AND/OR S TO VISIBILITY
. * = DENOTES  
STATION MAY NOT REPORT PRECIPITATION (E.G., RAIN,SNOW,ETC.),
 
THUNDER OR FOG.  
 
VAZ042-051-052>054-056-230300-  
NORTHERN VIRGINIA  
 
CITY SKY/WX TMP DP RH WIND PRES REMARKS
 
WASH NATIONAL CLOUDY 45 29 53 N3 30.45S  
DULLES CLOUDY 37 31 78 CALM 30.44S  
FORT BELVOIR FAIR 42 29 62 CALM 30.44S  
QUANTICO FAIR 44 36 73 E5 30.45F  
FREDERICKSBRG* MOCLDY 45 32 60 CALM 30.43F  
STAFFORD* FAIR 44 32 63 CALM 30.48S  
WARRENTON FAIR 40 33 77 CALM 30.43S  
CULPEPER* FAIR 41 33 75 CALM 30.45S  
MANASSAS* FAIR 39 33 79 CALM 30.45  
LEESBURG* FAIR 41 32 70 CALM 30.44F  
WINCHESTER FAIR 34 30 86 CALM 30.44F  
FRONT ROYAL* FAIR 36 30 80 NE5 30.41F  
LURAY* FAIR 39 32 75 CALM 30.41S  

 
 
VAZ048-049-060>072-079>083-230300-  
CENTRAL AND SOUTH CENTRAL VIRGINIA  
 
CITY SKY/WX TMP DP RH WIND PRES REMARKS
 
RICHMOND LGT RAIN 44 41 89 N3 30.44R  
CHESTERFIELD* LGT RAIN 43 42 97 CALM 30.43R  
PETERSBURG* DRIZZLE 42 40 93 CALM 30.44R  
HANOVER LGT RAIN 43 41 93 CALM 30.45R  
TAPPAHANNOCK* FAIR 41 39 93 CALM 30.45R  
QUINTON* CLOUDY 42 42 99 CALM 30.44R  
CHARLOTTSVILLE CLOUDY 45 33 63 NE5 30.40F  
GORDONSVILLE* CLOUDY 42 38 86 CALM 30.41F  
ORANGE* CLOUDY 41 34 75 CALM 30.43S  
LOUISA* CLOUDY 40 38 90 NE3 30.46F  
BUMPASS* CLOUDY 41 40 96 W5 30.43F  
FARMVILLE* DRIZZLE 42 41 95 CALM 30.41S  
CREWE* CLOUDY 41 40 95 CALM 30.42R  
FORT PICKETT* CLOUDY 41 41 100 E3 30.41F  
CHASE CITY* CLOUDY 41 41 100 CALM 30.42R  
CLARKSVILLE* CLOUDY 41 41 100 CALM 30.40F  
SOUTH HILL* CLOUDY 41 41 100 CALM 30.46F  
LAWRENCEVILLE* CLOUDY 41 40 97 CALM 30.41S  
EMPORIA* N/A 43 39 87 CALM 30.44S  

 
 
VAZ088>098-230300-  
SOUTHEAST VIRGINIA  
 
CITY SKY/WX TMP DP RH WIND PRES REMARKS
 
NORFOLK LGT RAIN 43 40 89 NE6 30.42F  
VIRGINIA BEACH CLOUDY 42 41 96 NE5 30.42F  
NORFOLK NAVAL CLOUDY 43 39 86 E5 30.43F  
WEST POINT* CLOUDY 42 40 93 NE3 30.44R  
SALUDA* CLOUDY 41 41 100 CALM 30.43R  
NEWPORT NEWS LGT RAIN 42 38 85 E3 30.42F  
LANGLEY AFB LGT RAIN 42 39 91 NE3 30.42S  
FORT EUSTIS FAIR 42 39 88 CALM 30.40F  
WILLIAMSBURG* MOCLDY 43 43 100 CALM 30.43S  
HR EXEC AP* LGT RAIN 41 40 96 CALM 30.43F  
FRANKLIN* LGT RAIN 42 41 98 CALM 30.44R  
US460-WAKEFLD LGT RAIN 43 39 86 CALM 30.43R  

 
 
VAZ020-022-025-037-045-230300-  
WEST CENTRAL AND SOUTHWEST VIRGINIA  
 
CITY SKY/WX TMP DP RH WIND PRES REMARKS
 
STAUNTON* CLOUDY 41 33 74 N5 30.41R  
WAYNESBORO* CLOUDY 40 39 97 CALM 30.37F  
HOT SPRINGS VA LGT RAIN 39 39 100 CALM 30.33R VSB 1/2  
LYNCHBURG LGT RAIN 41 40 96 CALM 30.41R FOG  
DANVILLE LGT RAIN 42 41 96 NE6 30.41R  
SOUTH BOSTON* CLOUDY 42 40 95 N3 30.43R  
MARTINSVILLE RAIN 42 42 97 NE3 30.42S  
ROANOKE RAIN 40 38 93 SE7 30.42R FOG  
BLACKSBURG RAIN 41 41 100 E3 30.40R  
DUBLIN* LGT RAIN 43 43 100 E3 30.37R  
MARION* LGT RAIN 46 46 100 NE10 30.35S  
HILLSVILLE* CLOUDY 42 41 96 CALM 30.33S  
RICHLANDS* LGT RAIN 44 43 95 SE8 30.28S  
WISE* RAIN 46 46 100 S6 30.28R  
ABINGDON* LGT RAIN 46 46 99 E8 30.28F  

 
 
MDZ021>025-VAZ099-100-230300-  
SOUTHERN MARYLAND AND THE DELMARVA PENINSULA  
 
CITY SKY/WX TMP DP RH WIND PRES REMARKS
 
PATUXENT RIVER MOCLDY 43 33 68 CALM 30.44S  
BAY BRIDGE APT FAIR 39 36 87 CALM 30.45S  
LEONARDTOWN FAIR 41 32 70 CALM 30.46R  
DOVER FAIR 40 28 60 NW5 30.43F  
GEORGETOWN FAIR 43 32 65 CALM 30.44F  
EASTON MOCLDY 43 30 61 N5 30.48S  
CAMBRIDGE CLEAR 41 34 75 CALM 30.44S  
SALISBURY FAIR 41 37 86 SE3 30.44S  
TANGIER NOT AVBL  
OCEAN CITY FAIR 40 35 83 CALM 30.44R  
WALLOPS ISLAND CLOUDY 43 35 73 SE5 30.44S  
ACCOMACK* N/A N/A N/A N/A MISG N/A  

 
 
NCZ012>017-030>032-230300-  
NORTH CENTRAL AND EASTERN NORTH CAROLINA  
 
CITY SKY/WX TMP DP RH WIND PRES REMARKS
 
ROANOKE RAPIDS CLOUDY 41 41 100 CALM 30.42S  
RALEIGH LGT RAIN 42 41 96 E10G17 30.38F FOG  
ELIZABETH CITY CLOUDY 44 40 85 NE8 30.41F  
AHOSKIE* LGT RAIN 41 40 96 N3 30.42S  
EDENTON* CLOUDY 44 42 93 NE3 30.42F  
CURRITUCK* CLOUDY 44 42 95 MISG 30.42F  
KILL DEVIL HLS DRIZZLE 43 43 98 N8 30.39F  
MANTEO DRIZZLE 44 42 94 NE10G17 30.41S  
CAPE HATTERAS CLOUDY 51 45 79 NE15G29 30.36R  
TARBORO* CLOUDY 42 39 89 NE6G20 30.41S  
GOLDSBORO LGT RAIN 43 41 93 NE12 30.38R  
WASHINGTON RAIN 40 39 94 NE9 30.39F  
GREENVILLE RAIN 41 39 93 NE7 30.40F  
NEW BERN CLOUDY 43 41 93 NE12 30.38F  
WILMINGTON CLOUDY 47 44 90 NE13 30.33S  

 
 
VAZ048-230300-  
ELSEWHERE  
 
CITY SKY/WX TMP DP RH WIND PRES REMARKS
 
HARRISBURG PA CLOUDY 36 28 73 CALM 30.42F  
BALTIMORE CLOUDY 41 27 57 CALM 30.44S  
ANNAPOLIS FAIR 43 32 65 CALM 30.45S  
ANDREWS AFB FAIR 42 28 59 CALM 30.43R  
PHILADELPHIA CLOUDY 41 23 48 NE5 30.44R  
HENDERSON NC DRIZZLE 40 40 97 NE5 30.40S  
GREENSBORO RAIN 43 43 100 NE10 30.37S FOG  
ROCKY MOUNT LGT RAIN 42 40 92 NE9 30.41R FOG  

 
 
VAZ100-230300-  
MARINE  
 
STATION/POSITION TIME TEMP WIND PRES WAVE SWELL
 
AIR SEA DIR/SP/G HT/PER HT/PER  
(UTC) (F) (DEG/KT/KT) (MB) (FT/S) (FT/S)  
BRANDYWINE LGT 0142 1031.2R  
CAPE MAY NJ 0148 41 40 320/ 5/ 7 1030.3R  
LEWES DE 0142 42 41 300/ 3/ 4 1030.9R  
15NM E FENWICK I 0150 43 1031.0R 2/ 7  
OCEAN-CITY-INLET 0142 42 41 360/ 2/ 2 1031.4R  
WACHAPREAGUE VA 0142 42 44 70/ 5/ 6 1029.7F  
THOMAS POINT MD 0200 42 38 310/ 3/ 3 1031.9R  
COVE POINT MD 0142 43 10/ 3/ 4 N/A  
SOLOMONS ISLAND 0142 42 40 270/ 2/ 2 1030.4S  
BISHOPS HEAD MD 0142 43 43 360/ 4/ 6 1030.9F  
PINEY POINT MD 0142 260/ 2/ 3 N/A  
POTOMAC MD 0154 41 40 290/ 2/ 2 1031.7R  
CAMBRIDGE MD 0142 43 42 1030.8F  
LEWISETTA VA 0142 44 41 CALM 1030.7R  
RAPPAHANNOCK LGT 0142 30/ 5/ 5 1031.1F  
YORK RVR RNG VA 0142 42 110/ 7/ 8 1030.6F  
YORKTOWN VA 0142 43 45 100/ 3/ 4 1029.8F  
DOMINION TERM VA 0142 42 60/ 4/ 6 1030.4F  
KIPTOPEKE VA 0142 44 100/ 2/ 3 N/A  
CAPE HENRY VA 0142 43 40/ 8/ 9 1028.7F  
WILLOUBY STN VA 0142 43 70/ 8/ 9 1029.5F  
S CRANEY ISL VA 0142 43 60/ 7/ 9 1029.9F  
CAPE HENRY BUOY 0130 44 N/A 2/ 7  
1ST LANDING BUOY 0150 42 90/ 6/ 6 1030.0F  
64NM E OF VA BCH 0150 48 50 30/ 14/ 16 1030.3R 4/ 5 2/ 8  
DUCK PIER NC 0142 45 45 20/ 12/ 13 1029.4S  
44100 DUCK FRF 0145 45 N/A 3/ 5  
44056 DUCK FRF 0130 45 N/A 3/ 5  
OREGON INLET NC 0142 44 49 360/ 10/ 16 1029.3R  
HATTERAS NC 0142 47 54 30/ 16/ 28 1027.6R  
CAPE LOOKOUT NC 0100 20/ 20/ 23 1027.5R  

 
 
 
CLICK HERE TO GO TO PREVIOUS BULLETINS.

The Nexlab VA Page
The Nexlab NC Page
The Nexlab MD Page Main Text Page